Home   Weather   Wegberg   Past weeks

Flag for Germany Past Weather in Wegberg, North Rhine-Westphalia, Germany — Yesterday and Last 2 Weeks

Now
52 °F

Clear.


Feels Like: 51 °F
Forecast: 54 / 74 °F
Wind: 3 mph from Southeast

Location: Geilenkirchen Airport

Current Time: Aug 31, 2016 at 6:25:25 AM

Latest Report: Aug 31, 2016 at 5:50 AM


Visibility: 10 mi

Pressure: 30.15 "Hg

Humidity: 88%

Dew Point: 48 °F

Location of WegbergLocation

Past Weather in Wegberg — Graph

°F

Wegberg Temperature Yesterday

Maximum temperature yesterday: 75 °F (at 4:50 PM)
Minimum temperature yesterday: 50 °F (at 6:50 AM)
Average temperature yesterday: 63 °F

High & Low Weather Summary for the Past Weeks

 TemperatureHumidityPressure
High95 °F (Aug 25, 4:50 PM)100% (Aug 16, 6:50 AM)30.36 "Hg (Aug 16, 6:50 AM)
Low48 °F (Aug 16, 6:50 AM)30% (Aug 25, 4:50 PM)29.80 "Hg (Aug 18, 5:50 AM)
Average68 °F70%30.08 "Hg
* Reported Aug 16 4:50 AM — Aug 31 4:50 AM, Wegberg, Weather by CustomWeather, © 2016

Note: Actual official high and low records may vary slightly from our data, if they occured in-between our weather recording intervals... More about our weather records

Advertising

Wegberg Weather History for the Previous 24 Hours

Scroll right to see more
 ConditionsComfort  
Time TempWeatherWind HumidityBarometerVisibility
4:50 AM
Wed, Aug 31
52 °FClear.3 mph88%30.18 "Hg10 mi
3:50 AM52 °FClear.5 mph94%30.18 "Hg10 mi
2:50 AM52 °FClear.5 mph94%30.18 "Hg10 mi
1:50 AM54 °FClear.2 mph88%30.21 "Hg10 mi
12:50 AM54 °FClear.2 mph88%30.21 "Hg10 mi
11:50 PM
Tue, Aug 30
55 °FClear.No wind82%30.21 "Hg10 mi
10:50 PM57 °FClear.1 mph82%30.24 "Hg10 mi
9:50 PM61 °FClear.No wind77%30.24 "Hg10 mi
8:50 PM64 °FSunny.No wind68%30.24 "Hg10 mi
7:50 PM70 °FSunny.3 mph57%30.24 "Hg10 mi
6:50 PM75 °FSunny.6 mph44%30.24 "Hg10 mi
5:50 PM75 °FSunny.8 mph41%30.24 "Hg10 mi
4:50 PM75 °FSunny.8 mph39%30.27 "Hg10 mi
3:50 PM73 °FSunny.8 mph44%30.27 "Hg10 mi
2:50 PM73 °FPassing clouds.6 mph47%30.30 "HgN/A
1:50 PM73 °FPassing clouds.8 mph50%30.30 "HgN/A
12:50 PM72 °FPassing clouds.5 mph53%30.33 "HgN/A
11:50 AM68 °FPassing clouds.8 mph60%30.33 "HgN/A
10:50 AM68 °FPassing clouds.2 mph64%30.33 "HgN/A
9:50 AM64 °FSunny.1 mph73%30.33 "Hg10 mi
8:50 AM59 °FSunny.1 mph88%30.30 "Hg10 mi
7:50 AM52 °FPassing clouds.No wind100%30.30 "Hg6 mi
6:50 AM50 °FFog.No wind100%30.30 "Hg6 mi
Weather by CustomWeather, © 2016

See weather overviewHow to use our weather pages